Flag Weather past 2 weeks in Linz, Upper Austria, Austria

Now
54 °F

Partly sunny.


Feels Like: 52 °F
Forecast: 40 / 54 °F
Wind: 6 mph from Northwest

Location: Linz / Hoersching-Flughafen

Current Time: Oct 30, 2014 at 2:28:24 PM

Latest Report: Oct 30, 2014 at 1:50 PM


Visibility: 5 mi

Pressure: 30.27 "Hg

Humidity: 72%

Dew point: 45 °F

Location of LinzLocation

Historic Weather in Linz — Graph

°F

Linz temperature yesterday

Maximum temperature yesterday: 48 °F (at 2:50 PM)
Minimum temperature yesterday: 36 °F (at 1:20 AM)
Average temperature yesterday: 43 °F

Past Weeks' High & Low Weather Summary

 TemperatureHumidityPressure
High66 °F (Oct 20, 4:20 PM)100% (Oct 16, 3:20 AM)30.39 "Hg (Oct 16, 3:20 AM)
Low36 °F (Oct 28, 10:20 PM)66% (Oct 28, 12:20 PM)29.59 "Hg (Oct 21, 10:50 PM)
Average49 °F89%30.10 "Hg
* Reported Oct 15 1:20 PM — Oct 30 12:50 PM, Linz, Weather by CustomWeather, © 2014

Note: Actual official high and low records may vary slightly from our data, if they occured in-between our weather recording intervals... More about our weather records

Advertising

Linz weather history for previous 24 hours

 ConditionsComfort  
Time TempWeatherWind HumidityBarometerVisibility
12:50 PM
Oct 30
52 °FPartly sunny.6 mph77%30.27 "Hg5 mi
12:20 PM52 °FBroken clouds.5 mph82%30.27 "Hg6 mi
11:50 AM52 °FPartly sunny.2 mph77%30.27 "Hg5 mi
11:20 AM50 °FPartly sunny.2 mph82%30.27 "Hg5 mi
10:50 AM48 °FBroken clouds.5 mph87%30.27 "Hg5 mi
10:20 AM48 °FPartly sunny.3 mph82%30.27 "Hg4 mi
9:50 AM46 °FBroken clouds.2 mph87%30.27 "Hg4 mi
9:20 AM46 °FBroken clouds.2 mph87%30.27 "Hg4 mi
8:50 AM45 °FFog.2 mph93%30.27 "Hg3 mi
8:20 AM45 °FFog.1 mph87%30.27 "Hg2 mi
7:50 AM43 °FFog.2 mph93%30.27 "Hg3 mi
7:20 AM43 °FFog.1 mph93%30.24 "Hg3 mi
6:50 AM43 °FFog.1 mph93%30.24 "Hg2 mi
6:20 AM41 °FFog.2 mph100%30.21 "Hg3 mi
5:50 AM41 °FFog.1 mph100%30.21 "Hg3 mi
5:20 AM41 °FFog.2 mph100%30.21 "Hg3 mi
4:50 AM43 °FFog.1 mph93%30.21 "Hg3 mi
4:20 AM43 °FFog.1 mph93%30.21 "Hg3 mi
3:50 AM43 °FOvercast.1 mph93%30.21 "Hg4 mi
3:20 AM43 °FPartly cloudy.1 mph93%30.18 "Hg4 mi
2:50 AM43 °FPartly cloudy.1 mph93%30.18 "Hg4 mi
2:20 AM43 °FOvercast.1 mph93%30.18 "Hg4 mi
1:50 AM43 °FOvercast.1 mph93%30.18 "Hg4 mi
1:20 AM43 °FOvercast.1 mph93%30.18 "Hg4 mi
12:50 AM43 °FOvercast.2 mph93%30.18 "Hg4 mi
12:20 AM43 °FPassing clouds.1 mph93%30.18 "Hg5 mi
11:50 PM
Oct 29
43 °FPassing clouds.2 mph93%30.18 "Hg4 mi
11:20 PM43 °FPassing clouds.1 mph93%30.18 "Hg4 mi
10:50 PM43 °FPassing clouds.1 mph93%30.15 "Hg4 mi
10:20 PM43 °FPassing clouds.2 mph93%30.15 "Hg4 mi
9:50 PM43 °FOvercast.2 mph93%30.15 "Hg4 mi
9:20 PM43 °FOvercast.2 mph93%30.15 "Hg4 mi
8:50 PM43 °FOvercast.1 mph93%30.15 "Hg4 mi
8:20 PM45 °FOvercast.1 mph87%30.12 "Hg4 mi
7:50 PM45 °FOvercast.1 mph87%30.12 "Hg4 mi
7:20 PM45 °FPassing clouds.2 mph87%30.12 "Hg4 mi
6:50 PM45 °FPassing clouds.1 mph87%30.12 "Hg4 mi
6:20 PM46 °FPartly cloudy.1 mph82%30.12 "Hg5 mi
5:50 PM46 °FPassing clouds.No wind82%30.12 "Hg5 mi
5:20 PM46 °FPartly cloudy.1 mph82%30.12 "Hg6 mi
4:50 PM46 °FPartly cloudy.1 mph82%30.09 "Hg5 mi
4:20 PM46 °FPartly sunny.1 mph82%30.09 "Hg4 mi
3:50 PM46 °FPartly sunny.1 mph82%30.09 "Hg5 mi
3:20 PM46 °FBroken clouds.2 mph82%30.09 "Hg5 mi
2:50 PM48 °FBroken clouds.2 mph76%30.09 "Hg5 mi
2:20 PM46 °FPartly sunny.1 mph76%30.09 "Hg5 mi
Weather by CustomWeather, © 2014

See weather overviewHow to use our weather pages